This is the latest recevied weather packets stored in our database for station/object KD9JB-1. If no packets are shown the sender has not sent any weather packets the latest 10 day(s).
| Time | Temp. | Humidity | Pressure | Rain* | Wind** | Luminosity | Snow |
|---|---|---|---|---|---|---|---|
| 1777448811 | 16.67° C | 94% | 1010.1 hPa | 0 mm | - | - | - |
| 1777448511 | 16.11° C | 94% | 1010.1 hPa | 0 mm | - | - | - |
| 1777448211 | 16.11° C | 94% | 1010 hPa | 0 mm | - | - | - |
| 1777447911 | 16.11° C | 94% | 1009.9 hPa | 0 mm | - | - | - |
| 1777447611 | 16.11° C | 94% | 1010 hPa | 0 mm | - | - | - |
| 1777447311 | 16.11° C | 93% | 1010 hPa | 0 mm | - | - | - |
| 1777447011 | 16.67° C | 93% | 1010 hPa | 0 mm | - | - | - |
| 1777446711 | 16.67° C | 93% | 1010.1 hPa | 0 mm | - | - | - |
| 1777446411 | 16.67° C | 93% | 1010 hPa | 0 mm | - | - | - |
| 1777446111 | 16.67° C | 93% | 1010.2 hPa | 0 mm | - | - | - |
| 1777445811 | 16.67° C | 93% | 1010.3 hPa | 0 mm | - | - | - |
| 1777445511 | 16.67° C | 93% | 1010.6 hPa | 0 mm | - | - | - |
| 1777445211 | 16.67° C | 92% | 1010.7 hPa | 0 mm | - | - | - |
| 1777444911 | 16.67° C | 93% | 1010.9 hPa | 0 mm | - | - | - |
| 1777444611 | 16.67° C | 93% | 1011 hPa | 0 mm | - | - | - |
| 1777444311 | 16.67° C | 93% | 1011.1 hPa | 0 mm | - | - | - |
| 1777444011 | 16.67° C | 93% | 1011.3 hPa | 0.25 mm | - | - | - |
| 1777443711 | 16.67° C | 93% | 1011.2 hPa | 0.25 mm | - | - | - |
| 1777443411 | 16.67° C | 93% | 1011 hPa | 0.25 mm | - | - | - |
| 1777443111 | 16.67° C | 93% | 1011.1 hPa | 0.51 mm | - | - | - |
| 1777442811 | 16.67° C | 93% | 1011.3 hPa | 0.51 mm | - | - | - |
| 1777442511 | 16.67° C | 93% | 1011.2 hPa | 1.02 mm | - | - | - |
| 1777442211 | 16.67° C | 92% | 1011.1 hPa | 1.78 mm | - | - | - |
| 1777441911 | 16.67° C | 92% | 1011.1 hPa | 2.03 mm | - | - | - |
| 1777441611 | 16.67° C | 92% | 1011.2 hPa | 2.29 mm | - | - | - |
* Rain latest hour (hover to see other rain measurements)
** Current wind speed in m/s (hover to see current wind gust speed)